| time (UTC) | temp F | wind direction | speed MPH | gust MPH | rain 1hr in | rain 24hr in | rain mn in | humidity % | barometer mb |
| 20260504050328 | 51 | 197 | 1.0 | 3.0 | 0.00 | 0.00 | 0.00 | 47 | 1014.6 |
| 20260504045328 | 51 | 282 | 0.0 | 2.0 | 0.00 | 0.00 | 0.00 | 45 | 1014.5 |
| 20260504044828 | 52 | 0 | 0.0 | 2.0 | 0.00 | 0.00 | 0.00 | 44 | 1014.5 |
| 20260504044328 | 52 | 0 | 1.0 | 2.0 | 0.00 | 0.00 | 0.00 | 44 | 1014.5 |
| 20260504043828 | 52 | 0 | 0.0 | 2.0 | 0.00 | 0.00 | 0.00 | 44 | 1014.5 |
| 20260504043550 | 52 | 281 | 1.0 | 2.0 | 0.00 | 0.00 | 0.00 | 43 | 1014.4 |
| 20260504042828 | 52 | 0 | 1.0 | 3.0 | 0.00 | 0.00 | 0.00 | 43 | 1014.4 |
| 20260504041831 | 53 | 0 | 1.0 | 3.0 | 0.00 | 0.00 | 0.00 | 42 | 1014.3 |
| 20260504041546 | 53 | 300 | 1.0 | 3.0 | 0.00 | 0.00 | 0.00 | 41 | 1014.3 |
| 20260504040824 | 53 | 0 | 1.0 | 5.0 | 0.00 | 0.00 | 0.00 | 40 | 1014.2 |
| 20260504040540 | 53 | 276 | 1.0 | 5.0 | 0.00 | 0.00 | 0.00 | 40 | 1014.2 |
| 20260504035820 | 53 | 313 | 1.0 | 3.0 | 0.00 | 0.00 | 0.00 | 41 | 1014.2 |
| 20260504035320 | 53 | 161 | 1.0 | 3.0 | 0.00 | 0.00 | 0.00 | 40 | 1014.2 |
| 20260504034819 | 53 | 0 | 1.0 | 4.0 | 0.00 | 0.00 | 0.00 | 40 | 1014.1 |
| 20260504034551 | 53 | 264 | 2.0 | 4.0 | 0.00 | 0.00 | 0.00 | 39 | 1014.1 |
| 20260504033821 | 53 | 308 | 1.0 | 4.0 | 0.00 | 0.00 | 0.00 | 41 | 1014.1 |
| 20260504033543 | 52 | 302 | 1.0 | 4.0 | 0.00 | 0.00 | 0.00 | 41 | 1014.1 |
| 20260504032820 | 52 | 0 | 1.0 | 2.0 | 0.00 | 0.00 | 0.00 | 43 | 1014.2 |
| 20260504032321 | 52 | 335 | 1.0 | 2.0 | 0.00 | 0.00 | 0.00 | 42 | 1014.1 |
| 20260504031817 | 52 | 329 | 1.0 | 2.0 | 0.00 | 0.00 | 0.00 | 43 | 1014.2 |
| 20260504031318 | 52 | 324 | 1.0 | 3.0 | 0.00 | 0.00 | 0.00 | 42 | 1014.2 |
| 20260504030817 | 52 | 325 | 1.0 | 3.0 | 0.00 | 0.00 | 0.00 | 43 | 1014.2 |
| 20260504030318 | 52 | 278 | 1.0 | 3.0 | 0.00 | 0.00 | 0.00 | 42 | 1014.2 |
| 20260504025818 | 52 | 251 | 1.0 | 3.0 | 0.00 | 0.00 | 0.00 | 41 | 1014.2 |
| 20260504025546 | 52 | 317 | 1.0 | 3.0 | 0.00 | 0.00 | 0.00 | 42 | 1014.1 |
| 20260504024818 | 52 | 278 | 1.0 | 3.0 | 0.00 | 0.00 | 0.00 | 41 | 1014.2 |
| 20260504024318 | 52 | 274 | 1.0 | 3.0 | 0.00 | 0.00 | 0.00 | 41 | 1014.2 |
| 20260504023318 | 52 | 262 | 1.0 | 5.0 | 0.00 | 0.00 | 0.00 | 41 | 1014.2 |
| 20260504022818 | 52 | 269 | 1.0 | 3.0 | 0.00 | 0.00 | 0.00 | 42 | 1014.2 |
| 20260504022542 | 52 | 0 | 1.0 | 3.0 | 0.00 | 0.00 | 0.00 | 42 | 1014.1 |
| 20260504021817 | 52 | 284 | 1.0 | 3.0 | 0.00 | 0.00 | 0.00 | 41 | 1014.1 |
| 20260504021316 | 52 | 301 | 2.0 | 3.0 | 0.00 | 0.00 | 0.00 | 42 | 1014.1 |
| 20260504020818 | 52 | 307 | 1.0 | 3.0 | 0.00 | 0.00 | 0.00 | 43 | 1014.1 |
| 20260504020316 | 52 | 252 | 2.0 | 3.0 | 0.00 | 0.00 | 0.00 | 43 | 1014.0 |
| 20260504015817 | 52 | 302 | 1.0 | 3.0 | 0.00 | 0.00 | 0.00 | 43 | 1013.9 |
| 20260504015317 | 51 | 277 | 1.0 | 3.0 | 0.00 | 0.00 | 0.00 | 43 | 1013.8 |
| 20260504014817 | 51 | 320 | 2.0 | 3.0 | 0.00 | 0.00 | 0.00 | 43 | 1013.8 |
| 20260504014541 | 51 | 264 | 2.0 | 3.0 | 0.00 | 0.00 | 0.00 | 43 | 1013.8 |
| 20260504013818 | 51 | 305 | 2.0 | 3.0 | 0.00 | 0.00 | 0.00 | 43 | 1013.6 |
| 20260504013318 | 51 | 270 | 1.0 | 3.0 | 0.00 | 0.00 | 0.00 | 43 | 1013.6 |
| 20260504012818 | 51 | 308 | 1.0 | 3.0 | 0.00 | 0.00 | 0.00 | 42 | 1013.6 |
| 20260504012317 | 51 | 236 | 1.0 | 4.0 | 0.00 | 0.00 | 0.00 | 43 | 1013.6 |
| 20260504011817 | 51 | 328 | 2.0 | 4.0 | 0.00 | 0.00 | 0.00 | 42 | 1013.6 |
| 20260504011317 | 52 | 281 | 1.0 | 4.0 | 0.00 | 0.00 | 0.00 | 42 | 1013.5 |
| 20260504010818 | 52 | 301 | 1.0 | 3.0 | 0.00 | 0.00 | 0.00 | 42 | 1013.5 |
| 20260504010317 | 52 | 303 | 1.0 | 3.0 | 0.00 | 0.00 | 0.00 | 42 | 1013.5 |
| 20260504005818 | 52 | 320 | 1.0 | 3.0 | 0.00 | 0.00 | 0.00 | 41 | 1013.5 |
| 20260504005316 | 53 | 299 | 1.0 | 3.0 | 0.00 | 0.00 | 0.00 | 40 | 1013.4 |
| 20260504004814 | 53 | 318 | 1.0 | 3.0 | 0.00 | 0.00 | 0.00 | 40 | 1013.5 |
| 20260504004314 | 53 | 299 | 1.0 | 2.0 | 0.00 | 0.00 | 0.00 | 40 | 1013.5 |
| 20260504003813 | 54 | 250 | 0.0 | 2.0 | 0.00 | 0.00 | 0.00 | 39 | 1013.5 |
| 20260504003314 | 55 | 0 | 1.0 | 3.0 | 0.00 | 0.00 | 0.00 | 38 | 1013.5 |
| 20260504002812 | 55 | 316 | 1.0 | 3.0 | 0.00 | 0.00 | 0.00 | 37 | 1013.4 |
| 20260504002312 | 55 | 237 | 1.0 | 3.0 | 0.00 | 0.00 | 0.00 | 36 | 1013.4 |
| 20260504001812 | 55 | 251 | 1.0 | 3.0 | 0.00 | 0.00 | 0.00 | 36 | 1013.4 |
| 20260504001312 | 56 | 0 | 1.0 | 3.0 | 0.00 | 0.00 | 0.00 | 35 | 1013.4 |
| 20260504000812 | 56 | 290 | 1.0 | 4.0 | 0.00 | 0.00 | 0.00 | 35 | 1013.4 |
| 20260503235812 | 57 | 325 | 2.0 | 6.0 | 0.00 | 0.00 | 0.00 | 34 | 1013.4 |
| 20260503235312 | 58 | 304 | 2.0 | 6.0 | 0.00 | 0.00 | 0.00 | 33 | 1013.3 |
| 20260503234813 | 58 | 302 | 2.0 | 4.0 | 0.00 | 0.00 | 0.00 | 32 | 1013.3 |
| 20260503234312 | 58 | 325 | 2.0 | 5.0 | 0.00 | 0.00 | 0.00 | 32 | 1013.3 |
| 20260503233812 | 59 | 344 | 2.0 | 7.0 | 0.00 | 0.00 | 0.00 | 31 | 1013.2 |
| 20260503233308 | 59 | 299 | 2.0 | 7.0 | 0.00 | 0.00 | 0.00 | 31 | 1013.2 |
| 20260503232809 | 60 | 303 | 2.0 | 6.0 | 0.00 | 0.00 | 0.00 | 30 | 1013.3 |
| 20260503232309 | 60 | 0 | 2.0 | 6.0 | 0.00 | 0.00 | 0.00 | 29 | 1013.1 |
| 20260503232031 | 61 | 315 | 2.0 | 6.0 | 0.00 | 0.00 | 0.00 | 28 | 1013.1 |
| 20260503231303 | 61 | 296 | 2.0 | 7.0 | 0.00 | 0.00 | 0.00 | 29 | 1013.0 |
| 20260503230802 | 61 | 268 | 3.0 | 7.0 | 0.00 | 0.00 | 0.00 | 28 | 1012.9 |
| 20260503230529 | 61 | 277 | 2.0 | 4.0 | 0.00 | 0.00 | 0.00 | 29 | 1013.0 |
| 20260503225803 | 62 | 263 | 2.0 | 4.0 | 0.00 | 0.00 | 0.00 | 29 | 1012.9 |
| 20260503225304 | 61 | 357 | 2.0 | 6.0 | 0.00 | 0.00 | 0.00 | 30 | 1013.0 |
| 20260503224803 | 61 | 278 | 3.0 | 6.0 | 0.00 | 0.00 | 0.00 | 29 | 1012.9 |
| 20260503224303 | 61 | 281 | 3.0 | 6.0 | 0.00 | 0.00 | 0.00 | 29 | 1012.9 |
| 20260503223802 | 62 | 308 | 3.0 | 6.0 | 0.00 | 0.00 | 0.00 | 28 | 1012.9 |
| 20260503223302 | 62 | 297 | 2.0 | 6.0 | 0.00 | 0.00 | 0.00 | 28 | 1013.0 |
| 20260503222759 | 62 | 321 | 2.0 | 6.0 | 0.00 | 0.00 | 0.00 | 28 | 1013.0 |
| 20260503222255 | 62 | 298 | 2.0 | 6.0 | 0.00 | 0.00 | 0.00 | 28 | 1013.0 |
| 20260503221755 | 61 | 170 | 3.0 | 8.0 | 0.00 | 0.00 | 0.00 | 26 | 1012.9 |
| 20260503221518 | 61 | 61 | 4.0 | 8.0 | 0.00 | 0.00 | 0.00 | 27 | 1013.0 |
| 20260503220756 | 61 | 277 | 4.0 | 8.0 | 0.00 | 0.00 | 0.00 | 27 | 1012.9 |
| 20260503215756 | 61 | 276 | 4.0 | 8.0 | 0.00 | 0.00 | 0.00 | 27 | 1013.0 |
| 20260503215256 | 61 | 276 | 4.0 | 9.0 | 0.00 | 0.00 | 0.00 | 27 | 1012.9 |
| 20260503215017 | 61 | 201 | 4.0 | 9.0 | 0.00 | 0.00 | 0.00 | 28 | 1012.9 |
| 20260503214256 | 61 | 267 | 3.0 | 7.0 | 0.00 | 0.00 | 0.00 | 28 | 1013.0 |
| 20260503213757 | 61 | 265 | 4.0 | 9.0 | 0.00 | 0.00 | 0.00 | 29 | 1013.0 |
| 20260503213256 | 61 | 322 | 4.0 | 9.0 | 0.00 | 0.00 | 0.00 | 28 | 1013.0 |
| 20260503212758 | 61 | 277 | 4.0 | 9.0 | 0.00 | 0.00 | 0.00 | 29 | 1013.0 |
| 20260503212257 | 61 | 292 | 4.0 | 9.0 | 0.00 | 0.00 | 0.00 | 28 | 1013.1 |
| 20260503211758 | 61 | 280 | 3.0 | 9.0 | 0.00 | 0.00 | 0.00 | 29 | 1013.1 |
| 20260503211257 | 60 | 303 | 4.0 | 9.0 | 0.00 | 0.00 | 0.00 | 29 | 1013.1 |
| 20260503211018 | 60 | 274 | 4.0 | 10.0 | 0.00 | 0.00 | 0.00 | 28 | 1013.1 |
| 20260503210257 | 61 | 295 | 4.0 | 10.0 | 0.00 | 0.00 | 0.00 | 30 | 1013.1 |
| 20260503205756 | 61 | 303 | 4.0 | 10.0 | 0.00 | 0.00 | 0.00 | 29 | 1013.2 |
| 20260503205258 | 61 | 314 | 3.0 | 7.0 | 0.00 | 0.00 | 0.00 | 29 | 1013.2 |
| 20260503204758 | 61 | 259 | 3.0 | 7.0 | 0.00 | 0.00 | 0.00 | 29 | 1013.1 |
| 20260503204257 | 60 | 291 | 3.0 | 7.0 | 0.00 | 0.00 | 0.00 | 29 | 1013.2 |
| 20260503203758 | 60 | 257 | 4.0 | 8.0 | 0.00 | 0.00 | 0.00 | 30 | 1013.3 |
| 20260503203258 | 60 | 301 | 4.0 | 8.0 | 0.00 | 0.00 | 0.00 | 31 | 1013.3 |
| 20260503202758 | 60 | 312 | 4.0 | 9.0 | 0.00 | 0.00 | 0.00 | 30 | 1013.4 |
| 20260503202257 | 60 | 268 | 4.0 | 9.0 | 0.00 | 0.00 | 0.00 | 30 | 1013.4 |
| 20260503202022 | 61 | 294 | 3.0 | 9.0 | 0.00 | 0.00 | 0.00 | 30 | 1013.4 |
| 20260503201514 | 61 | 265 | 2.0 | 6.0 | 0.00 | 0.00 | 0.00 | 31 | 1013.4 |
| 20260503200754 | 61 | 31 | 2.0 | 6.0 | 0.00 | 0.00 | 0.00 | 30 | 1013.4 |
| 20260503200252 | 60 | 289 | 3.0 | 6.0 | 0.00 | 0.00 | 0.00 | 31 | 1013.6 |
| 20260503195752 | 59 | 335 | 4.0 | 11.0 | 0.00 | 0.00 | 0.00 | 32 | 1013.8 |
| 20260503195252 | 59 | 100 | 5.0 | 13.0 | 0.00 | 0.00 | 0.00 | 31 | 1013.9 |
| 20260503195016 | 60 | 278 | 4.0 | 13.0 | 0.00 | 0.00 | 0.00 | 31 | 1014.0 |
| 20260503194252 | 59 | 153 | 4.0 | 9.0 | 0.00 | 0.00 | 0.00 | 34 | 1013.9 |
| 20260503193752 | 59 | 300 | 4.0 | 9.0 | 0.00 | 0.00 | 0.00 | 32 | 1014.0 |
| 20260503193252 | 59 | 245 | 3.0 | 7.0 | 0.00 | 0.00 | 0.00 | 33 | 1014.0 |
| 20260503192752 | 59 | 320 | 4.0 | 11.0 | 0.00 | 0.00 | 0.00 | 31 | 1014.0 |
| 20260503192252 | 58 | 318 | 5.0 | 12.0 | 0.00 | 0.00 | 0.00 | 32 | 1014.0 |
| 20260503191753 | 59 | 300 | 4.0 | 12.0 | 0.00 | 0.00 | 0.00 | 31 | 1014.1 |
| 20260503191252 | 58 | 238 | 3.0 | 7.0 | 0.00 | 0.00 | 0.00 | 33 | 1014.1 |
| 20260503190752 | 58 | 0 | 3.0 | 10.0 | 0.00 | 0.00 | 0.00 | 33 | 1014.3 |
| 20260503190520 | 58 | 267 | 4.0 | 11.0 | 0.00 | 0.00 | 0.00 | 33 | 1014.4 |
| 20260503190014 | 58 | 278 | 5.0 | 11.0 | 0.00 | 0.00 | 0.00 | 31 | 1014.4 |
| 20260503185249 | 57 | 291 | 5.0 | 10.0 | 0.00 | 0.00 | 0.00 | 33 | 1014.5 |
| 20260503184749 | 57 | 290 | 4.0 | 10.0 | 0.00 | 0.00 | 0.00 | 34 | 1014.6 |
| 20260503184249 | 57 | 20 | 3.0 | 7.0 | 0.00 | 0.00 | 0.00 | 39 | 1014.7 |
| 20260503183749 | 56 | 251 | 4.0 | 11.0 | 0.00 | 0.00 | 0.00 | 32 | 1014.8 |
| 20260503183508 | 56 | 301 | 6.0 | 14.0 | 0.00 | 0.00 | 0.00 | 34 | 1014.9 |
| 20260503182749 | 56 | 274 | 6.0 | 14.0 | 0.00 | 0.00 | 0.00 | 34 | 1015.0 |
| 20260503182250 | 56 | 284 | 4.0 | 12.0 | 0.00 | 0.00 | 0.00 | 36 | 1014.8 |
| 20260503181749 | 56 | 267 | 5.0 | 12.0 | 0.00 | 0.00 | 0.00 | 35 | 1015.0 |
| 20260503181249 | 56 | 282 | 4.0 | 11.0 | 0.00 | 0.00 | 0.00 | 40 | 1014.9 |
| 20260503180749 | 56 | 262 | 5.0 | 10.0 | 0.00 | 0.00 | 0.00 | 35 | 1015.0 |
| 20260503180249 | 55 | 263 | 4.0 | 10.0 | 0.00 | 0.00 | 0.00 | 38 | 1015.1 |
| 20260503175749 | 55 | 343 | 4.0 | 9.0 | 0.00 | 0.00 | 0.00 | 36 | 1015.1 |
| 20260503175250 | 55 | 184 | 4.0 | 11.0 | 0.00 | 0.00 | 0.00 | 37 | 1015.1 |
| 20260503174748 | 55 | 325 | 5.0 | 13.0 | 0.00 | 0.00 | 0.00 | 36 | 1015.1 |
| 20260503174247 | 55 | 306 | 4.0 | 13.0 | 0.00 | 0.00 | 0.00 | 37 | 1015.2 |
| 20260503173748 | 55 | 286 | 4.0 | 9.0 | 0.00 | 0.00 | 0.00 | 37 | 1015.1 |
| 20260503173247 | 54 | 255 | 4.0 | 9.0 | 0.00 | 0.00 | 0.00 | 40 | 1015.3 |
| 20260503172748 | 55 | 286 | 4.0 | 9.0 | 0.00 | 0.00 | 0.00 | 38 | 1015.2 |
| 20260503172512 | 54 | 277 | 4.0 | 9.0 | 0.00 | 0.00 | 0.00 | 39 | 1015.3 |
| 20260503171748 | 53 | 159 | 4.0 | 12.0 | 0.00 | 0.00 | 0.00 | 42 | 1015.3 |
| 20260503171248 | 53 | 322 | 5.0 | 12.0 | 0.00 | 0.00 | 0.00 | 37 | 1015.5 |
| 20260503171010 | 54 | 316 | 4.0 | 10.0 | 0.00 | 0.00 | 0.00 | 39 | 1015.5 |
| 20260503170508 | 53 | 185 | 4.0 | 9.0 | 0.00 | 0.00 | 0.00 | 41 | 1015.6 |
| 20260503150744 | 49 | 328 | 2.0 | 6.0 | 0.00 | 0.00 | 0.00 | 46 | 1016.7 |
| 20260503150244 | 49 | 268 | 3.0 | 8.0 | 0.00 | 0.00 | 0.00 | 46 | 1016.7 |
| 20260503140235 | 46 | 44 | 4.0 | 12.0 | 0.00 | 0.00 | 0.00 | 47 | 1016.8 |
| 20260503131235 | 44 | 280 | 4.0 | 10.0 | 0.00 | 0.00 | 0.00 | 50 | 1016.5 |
| 20260503130735 | 44 | 262 | 4.0 | 10.0 | 0.00 | 0.00 | 0.00 | 49 | 1016.5 |
| 20260503130235 | 44 | 310 | 4.0 | 8.0 | 0.00 | 0.00 | 0.00 | 49 | 1016.5 |
| 20260503110447 | 38 | 300 | 2.0 | 4.0 | 0.00 | 0.00 | 0.00 | 63 | 1015.6 |
| 20260503090207 | 39 | 275 | 1.0 | 4.0 | 0.00 | 0.00 | 0.00 | 62 | 1014.2 |
| 20260503081202 | 40 | 311 | 1.0 | 4.0 | 0.00 | 0.00 | 0.00 | 63 | 1013.8 |
| 20260503080703 | 40 | 346 | 1.0 | 2.0 | 0.00 | 0.00 | 0.00 | 63 | 1013.6 |
| 20260503080422 | 40 | 345 | 1.0 | 3.0 | 0.00 | 0.00 | 0.00 | 64 | 1013.6 |
| 20260503072702 | 40 | 284 | 2.0 | 4.0 | 0.00 | 0.00 | 0.00 | 64 | 1013.3 |
| 20260503072158 | 40 | 312 | 2.0 | 4.0 | 0.00 | 0.00 | 0.00 | 63 | 1013.2 |
| 20260503071659 | 39 | 297 | 2.0 | 4.0 | 0.00 | 0.00 | 0.00 | 67 | 1013.2 |
| 20260503071157 | 39 | 328 | 2.0 | 4.0 | 0.00 | 0.00 | 0.00 | 67 | 1013.1 |
| 20260503070657 | 38 | 325 | 1.0 | 3.0 | 0.00 | 0.00 | 0.00 | 74 | 1013.1 |
| 20260503070157 | 38 | 287 | 1.0 | 3.0 | 0.00 | 0.00 | 0.00 | 73 | 1013.2 |